Other Public Products
Issued by NWS Grand Forks, ND

Home | Current Version | Previous Version | Graphics & Text | Print | Product List | Glossary On
Versions: 1 2 3 4 5 6 7 8 9 10 11 12 13 14 15 16 17 18 19 20 21 22 23 24 25 26 27 28 29 30 31 32 33 34 35 36 37 38 39 40 41 42 43 44 45 46 47 48 49 50
000
FPUS83 KFGF 221110
OPUFGF
PRAIRIE TO PINES WEATHER ROUNDUP
NATIONAL WEATHER SERVICE EASTERN NORTH DAKOTA/GRAND FORKS ND
600 AM CDT FRI AUG 22 2014

 **SATELLITE DATA USED TO AUGMENT SKY COVER AT AUTOMATED STATIONS**
 *****  WEATHER ACROSS EASTERN NORTH DAKOTA  *****

CITY           SKY/WX    TMP DP  RH WIND       PRES   REMARKS
GRAND FORKS    CLOUDY    67  66  97 N7        29.93R
GRAND FORKS AF MOCLDY    66  66 100 N8        29.95R
GRAND CITY NWS   N/A     64 N/A N/A N3          N/A
BUXTON         NOT AVBL
DEVILS LAKE    CLOUDY    64  59  82 N10       29.99R
FARGO          FOG       66  65  96 N3        29.93R VSB 1/4
WAHPETON ARPT  CLOUDY    68  64  88 CALM      29.94R VSB 1/4
$$

 *****  WEATHER ACROSS CENTRAL AND WESTERN NORTH DAKOTA  *****

CITY           SKY/WX    TMP DP  RH WIND       PRES   REMARKS
JAMESTOWN      CLOUDY    67  65  93 NW8       29.98R
BISMARCK       LGT RAIN  65  65 100 NE5       30.01S FOG
MINOT          LGT RAIN  60  59  96 N8        30.05R FOG
MINOT AFB      LGT RAIN  60  60 100 N8        30.05R
GARRISON         N/A     64  63  96 NE6       30.03R
WILLISTON      CLOUDY    62  55  77 NE14      30.08R
DICKINSON      CLOUDY    63  62  97 CALM      30.03S FOG
HETTINGER      MOCLDY    57  56  96 W3        30.05R FOG
$$

 *****  OTHER OBSERVATIONS NORTHEAST NORTH DAKOTA  *****

CITY           SKY/WX    TMP DP  RH WIND       PRES   REMARKS
WALHALLA         N/A     63  63 100 N8        29.99R
LANGDON        CLOUDY    63  61  94 N10       30.01R FOG
CAVALIER       LGT RAIN  64  63  94 NW10G16   29.97R VSB 3/4
GRAFTON        CLOUDY    66  66 100 N10       29.95R
CANDO          CLOUDY    63  61  94 N10       30.03R
FORT TOTTEN      N/A     64  63  97 N5        29.95S
ROLLA          CLOUDY    59  59 100 N10       30.05R FOG
RUGBY          PTSUNNY   61  61 100 NE6       30.03R
 ***** THE ABOVE OBSERVATIONS ARE NON NWS ARE NOT QUALITY
        CONTROLLED AND MAY MIS-REPORT RAIN FOR SNOW...
$$

 *****  OTHER OBSERVATIONS SOUTHEAST NORTH DAKOTA *****

CITY           SKY/WX    TMP DP  RH WIND       PRES   REMARKS
COOPERSTOWN    NOT AVBL
VALLEY CITY    CLOUDY    66  66 100 N6        29.97R
OAKES          NOT AVBL
GWINNER        CLOUDY    66  66 100 CALM      29.97R VSB 1/2
SHEYENNE NWR     N/A     65  65  99 NW2       29.95S
BUFFALO        NOT AVBL
WYNDMERE       NOT AVBL
 ***** THE ABOVE OBSERVATIONS ARE NON NWS ARE NOT QUALITY
       CONTROLLED AND MAY MIS-REPORT RAIN FOR SNOW...
$$

  *****  WEATHER ACROSS NORTHERN MINNESOTA  *****

CITY           SKY/WX    TMP DP  RH WIND       PRES   REMARKS
FLAG ISLAND    CLOUDY    66  63  88 E5        29.95R
WARROAD        CLOUDY    66  64  94 E5        29.95R
ROSEAU         MOCLDY    66  63  88 NE3       29.94S
HALLOCK        PTCLDY    66  64  94 N5        29.93S
THF RVR FALLS  CLOUDY    68  66  94 CALM      29.93R
HALSTAD          N/A     67  64  92 CALM        N/A
FOSSTON        CLOUDY    64  63  94 CALM      29.95R FOG
BAUDETTE       CLOUDY    64  62  93 E5        29.94R
WASKISH        CLOUDY    64  64 100 CALM      29.95R
CROOKSTON      FOG       68  66  94 N7        29.94R VSB 1/2
$$
  *****  WEATHER ACROSS CENTRAL AND WEST MINNESOTA  *****

CITY           SKY/WX    TMP DP  RH WIND       PRES   REMARKS
BEMIDJI        CLOUDY    66  65  96 CALM      29.95R
PARK RAPIDS    PTCLDY    67  66  97 CALM      29.95R
WADENA         FOG       66  66 100 CALM      29.94S VSB 1
DETROIT LAKES  CLOUDY    68  68 100 CALM      29.96R FOG
MOORHEAD       FOG       66  66 100 CALM      29.94R VSB<1/4
FERGUS FALLS   CLOUDY    68  66  94 CALM      29.94R FOG
ELBOW LAKE     CLOUDY    68  67  98 CALM      29.94R
MORRIS MN      FOG       68  68 100 CALM      29.92S VSB<1/4
STAPLES        CLOUDY    66  64  94 CALM      29.94S
WHEATON        DRZL/FOG  63  63 100 NE5       29.95R VSB 1/4
$$
  *****  WEATHER ELSEWHERE ACROSS MINNESOTA  *****

CITY           SKY/WX    TMP DP  RH WIND       PRES   REMARKS
DULUTH         DRZL/FOG  62  59  90 VRB3      29.94R VSB 1/2
INTRNTL FALLS  CLOUDY    64  61  90 CALM      29.95S
ELY            CLOUDY    61  61 100 CALM      29.96R FOG
CLOQUET        CLOUDY    61  59  94 E3        29.94S
BRAINERD       CLOUDY    64  63  96 E3        29.94S FOG
HIBBING        CLOUDY    65  61  87 CALM      29.96R
ALEXANDRIA     CLOUDY    68  67  96 CALM      29.96R
SAINT CLOUD    FOG       70  68  93 NW5       29.93R VSB 1/2
MINNEAPOLIS    CLOUDY    72  70  93 N7        29.90S
$$

  *****  WEATHER ACROSS SOUTH DAKOTA  *****

CITY           SKY/WX    TMP DP  RH WIND       PRES   REMARKS
SIOUX FALLS    PTCLDY    65  64  97 N3        29.93S
BROOKINGS      NOT AVBL
WATERTOWN      FOG       61  61 100 CALM      29.95R VSB 1/4
HURON          FOG       57  57 100 NW6       29.94R VSB 1/2
SISSETON         N/A     63  63 100 N5        29.92R
ABERDEEN       MOCLDY    64  64 100 N10       29.96R
MITCHELL       PTCLDY    64  63  96 CALM      29.94R FOG
PIERRE         MOCLDY    66  64  93 N10       29.97R
MOBRIDGE       CLOUDY    64  63  96 W3        29.98S
RAPID CITY     CLOUDY    61  60  97 N16       30.04R FOG
$$

  *****  SOME WEATHER IN NEARBY STATES *****

CITY           SKY/WX    TMP DP  RH WIND       PRES   REMARKS
GLASGOW MT     LGT RAIN  59  58  96 NE12      30.08R
GREAT FALLS MT CLOUDY    51  50  96 NE7       30.12F
CHEYENNE WY    LGT RAIN  60  49  66 S5        30.18R
SCOTTSBLUFF NE CLOUDY    63  53  70 SW5       30.07S
OMAHA NE       MOCLDY    74  69  85 CALM      29.89S
DES MOINES IA  CLOUDY    74  68  81 S10       29.84S
DAVENPORT IA   MOCLDY    73  71  93 CALM      29.89S
CHICAGO IL     MOCLDY    73  69  87 S5        29.91S
EAU CLAIRE WI  CLOUDY    71  71 100 CALM      29.88R
LA CROSSE WI   CLOUDY    74  71  91 SE3       29.87S
$$

  *****  SOME NATIONAL WEATHER *****

CITY           SKY/WX    TMP DP  RH WIND       PRES   REMARKS
LA GUARDIA NY  MOCLDY    68  64  87 E7        30.01R
RALEIGH NC     MOCLDY    72  69  90 CALM      30.02R
ATLANTA GA     PTCLDY    74  70  87 NW5       30.09R
NEW ORLEANS LA MOCLDY    76  73  91 W3        30.10R
OKLAHOMA CITY  PTCLDY    77  64  64 S12       29.97R
ALBUQUERQUE NM MOCLDY    71  46  40 NW8       30.15S
SALT LAKE CITY MOCLDY    69  48  47 SE8       29.97F
LOS ANGELES CA PTCLDY    67  63  87 NW5       29.94F
BOISE ID       PTCLDY    62  38  40 CALM      29.89R
SEATTLE WA     CLEAR     58  52  80 NE5       30.02S
$$

*** WEATHER ACROSS MANITOBA...SASKATCHEWAN AND ONTARIO ***
                ***ONTARIO***

CITY           SKY/WX    TMP DP  RH WIND       PRES   REMARKS
GERALDTON      MOCLDY    61  61 100 CALM      30.03R FOG
THUNDER BAY    CLOUDY    59  59 100 E7        29.98S
SIOUX LOOKOUT  MOCLDY    61  59  94 SE3       29.99R
TORONTO        CLOUDY    63  61  94 N9        29.99R FOG
BIG TROUT LK   CLOUDY    64  61  88 S7        29.97R
PICKLE LAKE    CLOUDY    63  59  88 SE7       30.01
DRYDEN         CLOUDY    63  63 100 E2        29.99R FOG
KENORA         MOCLDY    63  63 100 NE5       29.98R
$$
                *** MANITOBA***

CITY           SKY/WX    TMP DP  RH WIND       PRES   REMARKS
BRANDON        CLOUDY    59  57  94 N2        30.06R
DAUPHIN        CLOUDY    59  57  94 NW9       30.07S
ISLAND LAKE    DRIZZLE   54  54 100 N8        30.03
PILOT MOUND      N/A     59  59 100 N10         N/A
THE PAS        CLOUDY    59  54  82 N7        30.15R
THOMPSON       CLOUDY    52  50  93 N6        30.15R
WINNIPEG       CLOUDY    63  61  94 N9        29.98R
LYNN LAKE      CLOUDY    50  48  93 MISG      30.22R
CHURCHILL      CLOUDY    46  45  93 N22       30.14R
GILLAM         CLOUDY    48  48 100 N16       30.11R
$$
                ***SASKATCHEWAN***

CITY           SKY/WX    TMP DP  RH WIND       PRES   REMARKS
ESTEVAN        MOCLDY    55  54  94 NE5       30.11R
KINDERSLEY     PTCLDY    46  45  93 N6        30.23R
LLOYDMINSTER   CLOUDY    48  43  81 N6        30.28R
PRINCE ALBERT  CLOUDY    54  48  82 CALM      30.22R
REGINA         CLOUDY    57  55  94 NE10      30.15R


USA.gov is the U.S. government's official web portal to all federal, state and local government web resources and services.